This is the latest recevied weather packets stored in our database for station/object KB4NWJ. If no packets are shown the sender has not sent any weather packets the latest 10 day(s).
| Time | Temp. | Humidity | Pressure | Rain* | Wind** | Luminosity | Snow |
|---|---|---|---|---|---|---|---|
| 1777335285 | 21.67° C | 72% | 1019.2 hPa | 0 mm | - | 3 W/m² | - |
| 1777334982 | 21.67° C | 72% | 1019.3 hPa | 0 mm | - | 6 W/m² | - |
| 1777334679 | 21.67° C | 71% | 1019.5 hPa | 0 mm | - | 9 W/m² | - |
| 1777334377 | 21.67° C | 70% | 1019.8 hPa | 0 mm | - | 12 W/m² | - |
| 1777334073 | 22.22° C | 70% | 1019.7 hPa | 0 mm | - | 15 W/m² | - |
| 1777333768 | 22.22° C | 69% | 1019.7 hPa | 0 mm | - | 18 W/m² | - |
| 1777333465 | 22.22° C | 70% | 1019.9 hPa | 0 mm | - | 22 W/m² | - |
| 1777333162 | 22.22° C | 69% | 1019.8 hPa | 0 mm | - | 25 W/m² | - |
| 1777332860 | 22.78° C | 69% | 1019.7 hPa | 0 mm | - | 28 W/m² | - |
| 1777332557 | 22.78° C | 68% | 1019.6 hPa | 0 mm | - | 30 W/m² | - |
| 1777332254 | 22.78° C | 68% | 1019.6 hPa | 0 mm | - | 32 W/m² | - |
| 1777331951 | 22.78° C | 68% | 1019.7 hPa | 0 mm | - | 34 W/m² | - |
| 1777331648 | 22.78° C | 68% | 1019.7 hPa | 0 mm | - | 36 W/m² | - |
| 1777331345 | 22.78° C | 68% | 1019.8 hPa | 0 mm | - | 38 W/m² | - |
| 1777331043 | 22.78° C | 67% | 1019.5 hPa | 0 mm | - | 39 W/m² | - |
| 1777330739 | 23.33° C | 67% | 1019.3 hPa | 0 mm | - | 42 W/m² | - |
| 1777330436 | 23.33° C | 66% | 1019.6 hPa | 0 mm | - | 85 W/m² | - |
| 1777330134 | 23.33° C | 66% | 1019.5 hPa | 0 mm | - | 112 W/m² | - |
| 1777329833 | 23.33° C | 67% | 1019.5 hPa | 0 mm | - | 123 W/m² | - |
| 1777329530 | 23.33° C | 65% | 1019.5 hPa | 0 mm | - | 142 W/m² | - |
| 1777329228 | 23.89° C | 65% | 1019.7 hPa | 0 mm | - | 160 W/m² | - |
| 1777328926 | 23.89° C | 66% | 1019.7 hPa | 0 mm | - | 159 W/m² | - |
| 1777328623 | 23.89° C | 65% | 1019.7 hPa | 0 mm | - | 186 W/m² | - |
| 1777328321 | 23.89° C | 65% | 1019.8 hPa | 0 mm | - | 206 W/m² | - |
| 1777328019 | 24.44° C | 64% | 1019.9 hPa | 0 mm | - | 217 W/m² | - |
* Rain latest hour (hover to see other rain measurements)
** Current wind speed in m/s (hover to see current wind gust speed)